Regional Weather Roundup
Issued by NWS

Home | Current Version | Previous Version | Text Only | Print | Product List | Glossary Off
Versions: 1 2 3 4 5 6 7 8 9 10 11 12 13 14 15 16 17 18 19 20 21 22 23 24 25 26 27 28 29 30 31 32 33 34 35 36 37 38 39 40 41 42 43 44 45 46 47 48 49 50

000
ASUS45 KBOU 112007
RWRCO

WEATHER ROUNDUP FOR COLORADO
NATIONAL WEATHER SERVICE DENVER/BOULDER CO
100 PM MST THU FEB 11 2016

NOTE: "FAIR" INDICATES FEW OR NO CLOUDS BELOW 12000 FEET WITH NO
SIGNIFICANT WEATHER AND/OR OBSTRUCTIONS TO VISIBILITY.

COZ001>005-013-030-031-112100-
...NORTHWEST COLORADO...

CITY           SKY/WX    TMP DP  RH WIND       PRES   REMARKS
CRAIG          MIX PCPN  26  18  71 SW3       30.39F
HAYDEN         CLOUDY    32  16  51 SE5       30.37F WCI  27
MEEKER         CLOUDY    36  20  52 CALM      30.38F
MOUNT WERNER   NOT AVBL
STEAMBOAT SPGS CLOUDY    28  17  62 CALM      30.37F
WALDEN         CLOUDY    37  19  48 S10G16    30.33F
$$

COZ006>008-011-112100-
...WEST CENTRAL VALLEYS...

CITY           SKY/WX    TMP DP  RH WIND       PRES   REMARKS
GRAND JUNCTION CLOUDY    40  25  55 NE5       30.40F
MONTROSE       SUNNY     42  22  44 E3        30.41F
EAGLE          SUNNY     36  16  44 MISG      30.41F
RIFLE          SUNNY     38  18  44 CALM      30.40F
DELTA          SUNNY     46  22  39 SW3       30.41F
NUCLA          SUNNY     43  21  42 CALM      30.42F
$$

COZ017>023-064>068-112100-
...SOUTHWEST COLORADO...

CITY           SKY/WX    TMP DP  RH WIND       PRES   REMARKS
DURANGO        SUNNY     42  19  39 NE6       30.37F
CORTEZ         CLOUDY    46  19  34 S3        30.38F
PAGOSA SPRINGS SUNNY     48  10  21 CALM      30.37F
TELLURIDE      SUNNY     50   1  13 W8        30.44F
WOLF CREEK PAS SUNNY     37   0  20 NW6       30.52F
$$

COZ009-010-012-014-032>034-037-058>063-112100-
...CENTRAL COLORADO...

CITY           SKY/WX    TMP DP  RH WIND       PRES   REMARKS
ASPEN          SUNNY     44  16  32 N5        30.37F
BUENA VISTA    SUNNY     51  11  20 SE9       30.28F
COPPER MTN     CLOUDY    36   5  27 NW20G35   30.46F
BERTHOUD PASS  FAIR      28  18  64 NW49G61   30.36F WCI   9
COTTONWOOD PAS SUNNY     50  -4  10 W5G20     30.35F
GUNNISON       CLOUDY     9   5  85 E3        30.50F
KREMMLING      CLOUDY    18   5  57 CALM      30.42F
LEADVILLE      SUNNY     42   9  25 NW16G23   30.38F
MONARCH PASS   CLOUDY    30   7  37 W33G44    30.52S WCI  14
SALIDA         NOT AVBL
SUNLIGHT       SUNNY     41   9  26 CALM      30.50F
WILKERSON PASS CLOUDY    41   9  26 CALM      30.41F
$$

COZ069>075-112100-
...SAN LUIS VALLEY/SANGRE DE CRISTO MOUNTAINS...

CITY           SKY/WX    TMP DP  RH WIND       PRES   REMARKS
ALAMOSA        SUNNY     47   4  17 CALM      30.35F
LA VETA PASS   CLOUDY    39  10  30 SW10G23   30.35F
SAGUACHE       CLOUDY    45  18  33 SE5       30.36F
$$

COZ035-036-038>040-112100-
...NORTHERN COLORADO FRONT RANGE...

CITY           SKY/WX    TMP DP  RH WIND       PRES   REMARKS
DENVER INTL AP CLOUDY    63  23  21 NE9       30.11F
DMNS CITY PARK   N/A     65  15  15 W16G23    30.11S
AURORA         NOT AVBL
FRONT RANGE AP PTSUNNY   59  25  27 MISG      30.13F
ERIE MUNI ARPT CLOUDY    60  28  29 N6        30.10F
BOULDER MUN AP CLOUDY    61  19  20 W20G36    30.10S
CENTENNIAL     CLOUDY    62  17  17 NW15      30.14F
BROOMFIELD     PTSUNNY   63  16  16 W15       30.13F
FORT COLLINS   CLOUDY    46  27  46 E3        30.13S
LONGMONT       CLOUDY    57  27  31 E6        30.12F
$$

COZ041-046-047-076>085-087-088-112100-
...PIKES PEAK/PALMER DIVIDE AND SOUTHERN FOOTHILLS...

CITY           SKY/WX    TMP DP  RH WIND       PRES   REMARKS
COLO. SPRINGS  CLOUDY    54  16  22 CALM      30.17F
A. F. ACADEMY  NOT AVBL
SCHRIEVER AFB  FAIR      53  15  22 W6        30.17F
ELLICOTT       CLOUDY   N/A N/A N/A W5        30.16F
FALCON         NOT AVBL
FORT CARSON    NOT AVBL
LIMON          CLOUDY    44  28  53 N5        30.15F
MONUMENT HILL  CLOUDY    46  21  36 W9        30.20F
TRINIDAD       SUNNY     69   5   8 N6        30.15F
$$

COZ042>045-048>051-090-091-112100-
...NORTHEAST COLORADO...

CITY           SKY/WX    TMP DP  RH WIND       PRES   REMARKS
GREELEY ARPT   CLOUDY    48  34  57 CALM      30.12F
AKRON          CLOUDY    51  28  41 NW10      30.11F
BURLINGTON     CLOUDY    56  32  40 W7        30.10F
WRAY           NOT AVBL
STERLING       CLOUDY    59  32  36 N21G26    30.10S
HOLYOKE        SUNNY     55  32  41 NW15G21   30.08S
FORT MORGAN    CLOUDY    55  28  35 S3        30.12S
$$

COZ086-089-092>099-112100-
...SOUTHEAST COLORADO...

CITY           SKY/WX    TMP DP  RH WIND       PRES   REMARKS
PUEBLO         CLOUDY    66  15  14 W6        30.11F
LA JUNTA       CLOUDY    66  18  15 W7        30.11F
LAMAR          CLOUDY    67  19  16 W10       30.08F
SPRINGFIELD      N/A     67  12  12 SW14      30.11F
$$



USA.gov is the U.S. government's official web portal to all federal, state and local government web resources and services.